TimeCDT,TemperatureF,Dew PointF,Humidity,Sea Level PressureIn,VisibilityMPH,Wind Direction,Wind SpeedMPH,Gust SpeedMPH,PrecipitationIn,Events,Conditions,WindDirDegrees,DateUTC
12:53 AM,79.0,57.9,48,29.76,-9999.0,East,11.5,17.3,N/A,,Unknown,100,2013-05-09 05:53:00
1:53 AM,78.1,59.0,52,29.75,-9999.0,East,8.1,-,N/A,,Unknown,90,2013-05-09 06:53:00
2:53 AM,77.0,60.1,56,29.73,-9999.0,ESE,13.8,-,N/A,,Unknown,110,2013-05-09 07:53:00
3:53 AM,73.0,61.0,66,29.74,-9999.0,East,11.5,-,N/A,,Unknown,90,2013-05-09 08:53:00
4:53 AM,72.0,63.0,73,29.76,-9999.0,NE,6.9,-,N/A,,Unknown,50,2013-05-09 09:53:00
5:53 AM,71.1,64.0,78,29.78,-9999.0,NE,8.1,-,N/A,,Unknown,50,2013-05-09 10:53:00
6:53 AM,71.1,64.0,78,29.80,-9999.0,ENE,8.1,-,N/A,,Unknown,60,2013-05-09 11:53:00
7:53 AM,71.1,64.0,78,29.82,-9999.0,ENE,4.6,-,N/A,,Unknown,60,2013-05-09 12:53:00
8:53 AM,72.0,64.0,76,29.83,-9999.0,ESE,5.8,-,N/A,,Unknown,110,2013-05-09 13:53:00
9:53 AM,73.9,64.0,71,29.85,-9999.0,ENE,5.8,-,N/A,,Unknown,70,2013-05-09 14:53:00
10:53 AM,75.0,63.0,66,29.87,-9999.0,Calm,Calm,-,N/A,,Unknown,0,2013-05-09 15:53:00
11:53 AM,79.0,63.0,58,29.83,-9999.0,East,5.8,-,N/A,,Unknown,80,2013-05-09 16:53:00
12:53 PM,82.9,57.0,41,29.83,-9999.0,SSW,3.5,-,N/A,,Unknown,200,2013-05-09 17:53:00
1:53 PM,89.1,48.0,24,29.78,-9999.0,Variable,5.8,-,N/A,,Unknown,0,2013-05-09 18:53:00
2:53 PM,91.0,44.1,20,29.75,-9999.0,SSW,11.5,16.1,N/A,,Unknown,200,2013-05-09 19:53:00
3:53 PM,93.9,39.9,15,29.71,-9999.0,SSE,9.2,-,N/A,,Unknown,160,2013-05-09 20:53:00
4:53 PM,93.9,36.0,13,29.68,-9999.0,Variable,6.9,16.1,N/A,,Unknown,0,2013-05-09 21:53:00
5:53 PM,93.9,26.1,9,29.67,-9999.0,West,6.9,-,N/A,,Unknown,280,2013-05-09 22:53:00
6:53 PM,95.0,23.0,8,29.67,-9999.0,WSW,10.4,-,N/A,,Unknown,250,2013-05-09 23:53:00
7:53 PM,93.0,24.1,8,29.67,-9999.0,WSW,5.8,19.6,N/A,,Unknown,240,2013-05-10 00:53:00
8:53 PM,86.0,55.0,35,29.72,-9999.0,East,11.5,-,N/A,,Unknown,100,2013-05-10 01:53:00
9:53 PM,84.0,55.0,37,29.75,-9999.0,South,5.8,-,N/A,,Unknown,170,2013-05-10 02:53:00
10:53 PM,82.0,51.1,34,29.74,-9999.0,SE,16.1,-,N/A,,Unknown,140,2013-05-10 03:53:00
11:53 PM,80.1,55.9,43,29.76,-9999.0,NE,13.8,-,N/A,,Unknown,50,2013-05-10 04:53:00